Regional Weather Roundup
Issued by NWS

Home | Current Version | Previous Version | Graphics & Text | Print | Product List | Glossary On
Versions: 1 2 3 4 5 6 7 8 9 10 11 12 13 14 15 16 17 18 19 20 21 22 23 24 25 26 27 28 29 30 31 32 33 34 35 36 37 38 39 40 41 42 43 44 45 46 47 48 49 50
000
ASUS45 KBOU 260907
RWRCO

WEATHER ROUNDUP FOR COLORADO
NATIONAL WEATHER SERVICE DENVER/BOULDER CO
300 AM MDT WED JUL 26 2017

NOTE: "FAIR" INDICATES FEW OR NO CLOUDS BELOW 12000 FEET WITH NO
SIGNIFICANT WEATHER AND/OR OBSTRUCTIONS TO VISIBILITY.

COZ001>005-013-030-031-261000-
...NORTHWEST COLORADO...

CITY           SKY/WX    TMP DP  RH WIND       PRES   REMARKS
CRAIG          CLOUDY    62  58  86 CALM      30.26F
HAYDEN         CLOUDY    57  54  88 W3        30.28F
MEEKER         CLOUDY    61  59  93 CALM      30.27S
RABBIT EARS PA FOG       50  50 100 W6        30.53S VSB 1/2
STEAMBOAT SPGS CLOUDY    58  58  98 CALM      30.29S
WALDEN         CLOUDY    55  54  94 SE3       30.37S
$$

COZ006>008-011-261000-
...WEST CENTRAL VALLEYS...

CITY           SKY/WX    TMP DP  RH WIND       PRES   REMARKS
GRAND JUNCTION CLOUDY    67  67 100 CALM      30.17S
MONTROSE       MOCLDY    64  62  93 E3        30.25S
EAGLE          CLOUDY    60  56  86 CALM      30.30F
RIFLE          CLOUDY    66  61  84 CALM      30.21S
DELTA          NOT AVBL
NUCLA          NOT AVBL
$$

COZ017>023-064>068-261000-
...SOUTHWEST COLORADO...

CITY           SKY/WX    TMP DP  RH WIND       PRES   REMARKS
DURANGO        FAIR      61  56  83 NE6       30.31S
CORTEZ         FAIR      58  57  97 CALM      30.26S
PAGOSA SPRINGS MOCLDY    59  57  93 CALM      30.39S
TELLURIDE      CLOUDY    56  51  85 SE3       30.49S
WOLF CREEK PAS FOG       45  45 100 SW5       30.71R VSB<1/4
$$

COZ009-010-012-014-032>034-037-058>063-261000-
...CENTRAL COLORADO...

CITY           SKY/WX    TMP DP  RH WIND       PRES   REMARKS
ASPEN          MOCLDY    56  54  93 CALM      30.35F
BUENA VISTA    CLOUDY    57  51  81 CALM      30.38R
COPPER MTN     CLOUDY    54  45  71 S5        30.65S
BERTHOUD PASS  MOCLDY    43  30  61 W17       30.68R
COTTONWOOD PAS CLOUDY    59  46  63 CALM      30.50S
GUNNISON       FAIR      58  53  84 NE5       30.38F
KREMMLING      CLOUDY    63  55  77 CALM      30.34R
LEADVILLE      MOCLDY    48  46  93 CALM      30.49F
MONARCH PASS   CLOUDY    46  45  93 W18       30.75S
SALIDA         CLOUDY    59  56  88 W3        30.43S
SUNLIGHT       CLOUDY    48  46  93 SW7       30.58S
WILKERSON PASS FAIR      50  45  81 W7        30.62R
$$

COZ069>075-261000-
...SAN LUIS VALLEY/SANGRE DE CRISTO MOUNTAINS...

CITY           SKY/WX    TMP DP  RH WIND       PRES   REMARKS
ALAMOSA        FAIR      55  54  96 CALM      30.35R
DEL NORTE      FAIR      55  54  95 W9        30.39S
LA VETA PASS   NOT AVBL
SAGUACHE         N/A    N/A N/A N/A MISG        N/A
$$

COZ035-036-038>040-261000-
...NORTHERN COLORADO FRONT RANGE...

CITY           SKY/WX    TMP DP  RH WIND       PRES   REMARKS
DENVER INTL AP MOCLDY    66  56  70 NW10      30.19R
DMNS CITY PARK   N/A     65  59  79 N7        30.20R
AURORA         MOCLDY    63  58  86 W5        30.22R
FRONT RANGE AP FAIR      63  59  88 N7        30.20R
ERIE MUNI ARPT FAIR      63  61  93 CALM      30.18R
BOULDER MUN AP FAIR      66  57  72 SW5       30.18S
CENTENNIAL     FAIR      65  60  84 CALM      30.22R
BROOMFIELD     FAIR      63  59  88 W7        30.22R
FORT COLLINS   FAIR      66  58  75 N8        30.18R
LONGMONT       FAIR      65  59  82 CALM      30.20R
$$

COZ041-046-047-076>085-087-088-261000-
...PIKES PEAK/PALMER DIVIDE AND SOUTHERN FOOTHILLS...

CITY           SKY/WX    TMP DP  RH WIND       PRES   REMARKS
COLO. SPRINGS  MOCLDY    66  57  72 NE3       30.22R
A. F. ACADEMY  FAIR      60  54  80 N9        30.24R
SCHRIEVER AFB  FAIR      66  54  65 N10       30.23R
CHEYENNE MTN   FAIR      66  52  61 NW8       30.21R
ELLICOTT       FAIR       1 N/A N/A N8        30.21R WCI -13
FALCON           N/A     64  52  65 N13G18    30.27R
FORT CARSON    FAIR      64  58  80 N9        30.19R
LIMON          FAIR      64  59  83 NW13      30.14R
MONUMENT HILL  FAIR      54  54 100 NW3       30.31R
CANON CITY     PTCLDY    70  61  73 W9        30.17R
WALSENBURG     FAIR      66  59  77 S7        30.21S
TRINIDAD       FAIR      66  55  67 W3        30.19S
$$

COZ042>045-048>051-090-091-261000-
...NORTHEAST COLORADO...

CITY           SKY/WX    TMP DP  RH WIND       PRES   REMARKS
GREELEY ARPT   FAIR      66  57  72 W3        30.15R
AKRON          FAIR      68  58  70 N12       30.09R
BURLINGTON     FAIR      69  61  75 W10       30.03F
WRAY           NOT AVBL
YUMA           FAIR      70  54  56 NW13      30.03S
STERLING       FAIR      70  61  73 N9G16     30.04R
HOLYOKE        FAIR      72  64  78 N17       30.00R
FORT MORGAN    FAIR      69  55  59 N20       30.11R
$$

COZ086-089-092>099-261000-
...SOUTHEAST COLORADO...

CITY           SKY/WX    TMP DP  RH WIND       PRES   REMARKS
PUEBLO         FAIR      68  64  87 N3        30.12R
LA JUNTA       FAIR      72  60  66 W9        30.07R
LAMAR          FAIR      70  63  78 W6        29.99S
SPRINGFIELD      N/A     70  59  68 SW3       30.06F
$$



USA.gov is the U.S. government's official web portal to all federal, state and local government web resources and services.